Flag for Ukraine Weather past 2 weeks in Luhansk, Ukraine

Now
75 °F

Clear.


Feels Like: 77 °F
Forecast: 64 / 83 °F
Wind: 17 mph from Northeast

Location: Rostov-Na-Donu

Current Time: Jul 24, 2014 at 2:50:48 AM

Latest Report: Jul 24, 2014 at 2:30 AM


Visibility: 10 mi

Pressure: 29.83 "Hg

Humidity: 39%

Dew point: 48 °F

Location of LuhanskLocation

Historic Weather in Luhansk — Graph

°F

Luhansk temperature yesterday

Maximum temperature yesterday: 90 °F (at 3:30 PM)
Minimum temperature yesterday: 61 °F (at 3:00 AM)
Average temperature yesterday: 77 °F

Past Weeks' High & Low Weather Summary

 TemperatureHumidityPressure
High95 °F (Jul 12, 1:00 PM)94% (Jul 9, 2:00 AM)30.01 "Hg (Jul 9, 2:00 AM)
Low61 °F (Jul 21, 2:30 AM)18% (Jul 14, 2:30 PM)29.71 "Hg (Jul 17, 11:30 PM)
Average77 °F46%29.83 "Hg
* Reported Jul 9 1:00 AM — Jul 24 1:30 AM, Luhansk, Weather by CustomWeather, © 2014

Note: Actual official high and low records may vary slightly from our data, if they occured in-between our weather recording intervals... More about our weather records

Advertising

Luhansk weather history for previous 24 hours

 ConditionsComfort  
Time TempWeatherWind HumidityBarometerVisibility
1:30 AM
Jul 24
75 °FClear.17 mph39%29.83 "Hg10 mi
1:00 AM75 °FClear.13 mph39%29.83 "Hg10 mi
12:30 AM73 °FClear.13 mph44%29.86 "Hg10 mi
12:00 AM75 °FClear.10 mph41%29.86 "Hg10 mi
11:30 PM
Jul 23
75 °FClear.10 mph41%29.86 "Hg10 mi
11:00 PM75 °FPassing clouds.10 mph44%29.86 "HgN/A
10:30 PM75 °FPassing clouds.8 mph41%29.86 "HgN/A
10:00 PM75 °FClear.8 mph44%29.86 "Hg10 mi
9:30 PM77 °FClear.10 mph39%29.86 "Hg10 mi
9:00 PM79 °FSunny.8 mph37%29.86 "Hg10 mi
8:30 PM79 °FSunny.8 mph39%29.86 "Hg10 mi
8:00 PM79 °FSunny.6 mph39%29.83 "Hg10 mi
7:30 PM82 °FSunny.8 mph35%29.83 "Hg10 mi
7:00 PM84 °FSunny.8 mph35%29.83 "Hg10 mi
6:30 PM86 °FPassing clouds.8 mph33%29.86 "HgN/A
6:00 PM88 °FPassing clouds.8 mph29%29.86 "HgN/A
5:30 PM88 °FScattered clouds.6 mph31%29.86 "HgN/A
5:00 PM88 °FScattered clouds.6 mph29%29.86 "HgN/A
4:30 PM88 °FScattered clouds.6 mph29%29.86 "HgN/A
4:00 PM88 °FScattered clouds.6 mph29%29.86 "HgN/A
3:30 PM90 °FScattered clouds.8 mph29%29.86 "HgN/A
3:00 PM88 °FPassing clouds.6 mph31%29.89 "HgN/A
2:30 PM88 °FPassing clouds.6 mph31%29.89 "HgN/A
2:00 PM88 °FPassing clouds.6 mph35%29.89 "HgN/A
1:30 PM86 °FPassing clouds.10 mph35%29.89 "HgN/A
1:00 PM86 °FPassing clouds.8 mph35%29.92 "HgN/A
12:00 PM84 °FPassing clouds.8 mph35%29.92 "HgN/A
8:30 AM73 °FSunny.10 mph57%29.92 "Hg10 mi
8:00 AM72 °FSunny.10 mph61%29.92 "Hg10 mi
7:30 AM70 °FClear.10 mph64%29.92 "HgN/A
7:00 AM68 °FClear.10 mph69%29.92 "HgN/A
6:30 AM66 °FSunny.8 mph78%29.92 "Hg10 mi
6:00 AM64 °FSunny.6 mph78%29.92 "Hg10 mi
5:30 AM61 °FClear.6 mph88%29.89 "Hg10 mi
5:00 AM61 °FClear.8 mph88%29.92 "Hg10 mi
4:30 AM61 °FClear.8 mph88%29.89 "Hg10 mi
4:00 AM61 °FClear.8 mph88%29.89 "Hg10 mi
3:30 AM61 °FClear.6 mph88%29.89 "Hg10 mi
3:00 AM61 °FClear.6 mph88%29.89 "Hg10 mi
Weather by CustomWeather, © 2014

See weather overviewHow to use our weather pages